Погода в Студенце

Россия / Ульяновская область     53°24′22″N   47°58′02″E
темп.,
°C
ветер,
м/с
пор.,
м/с
влажн.,
%
обл.,
%
осадки,
мм/ч
давл.,
гПа
погр.,
м
7 мая, пт
пт701:00+11ю3568100 0.0 101684
04:00+10ю3470100 0.0 101669
07:00+10ю41070100 0.0 1016290
10:00+14ю71154100 0.0 1016823
13:00+17ю81044100 0.0 10151843
16:00+18ю7945100 0.0 10142259
19:00+15ю51055100 0.0 1013304
22:00+11з4890100 1.1 1016345
8 мая, сб
сб801:00+10в2295100 1.9 101679
04:00+10юв2297100 4.0 1017114
07:00+10юв1293100 0.2 1017136
10:00+14юв457173 0.4 1016956
13:00+18ю565338 0.4 10151811
16:00+17ююв465556 0.4 1014626
19:00+17юв496097 0.0 1013252
22:00+14ююв3370100 0.0 101338
9 мая, вс
вс901:00+12ю2276100 0.0 101319
04:00+11ююв237899 0.0 101336
07:00+13ююв3975100 0.0 1013245
10:00+16ю51058100 0.0 1013576
13:00+19ююз585586 0.0 10131319
16:00+17з5665100 0.5 1014528
19:00+12ссз6894100 1.4 1015309
22:00+10с5995100 2.6 1017384
10 мая, пн
пн1001:00+9ссв6996100 7.4 1018379
04:00+8с71195100 8.1 1020399
07:00+7ссв71192100 0.0 1022480
10:00+8с81187100 0.0 1025629
13:00+7с91389100 0.4 1026590
16:00+7ссв61192100 2.3 1028545
19:00+7ссв7149087 0.1 1028577
22:00+6ссв4129512 0.1 1029348
11 мая, вт
вт1101:00+5ссв4139488 0.0 1030321
04:00+4св412937 0.0 1031304
07:00+6св513865 0.0 1031403
10:00+11всв710645 0.0 1031602
13:00+14всв79515 0.0 1031840
16:00+15всв78475 0.0 1030926
19:00+14св49635 0.0 1030330
22:00+10всв377179 0.0 1030102